HEBOWX Weather Reports


Display with metric or nautical units.
time (UTC)temp
F
wind
direction
speed
MPH
gust
MPH
rain 1hr
in
rain 24hr
in
rain mn
in
humidity
%
barometer
mb
20260509203540 61 0 0.0 0.0 0.00 0.00 0.00 49 1016.6
20260509203040 61 0 0.0 0.0 0.00 0.00 0.00 49 1016.6
20260509202540 61 0 0.0 0.0 0.00 0.00 0.00 49 1016.6
20260509202040 62 0 0.0 0.0 0.00 0.00 0.00 48 1016.6
20260509201540 62 0 0.0 0.0 0.00 0.00 0.00 48 1016.7
20260509201040 62 0 0.0 0.0 0.00 0.00 0.00 48 1016.5
20260509200540 62 0 0.0 0.0 0.00 0.00 0.00 49 1016.6
20260509200040 61 0 0.0 2.0 0.00 0.00 0.00 48 1016.6
20260509195541 61 0 0.0 2.0 0.00 0.00 0.00 50 1016.7
20260509195040 61 57 0.0 2.0 0.00 0.00 0.00 49 1016.9
20260509194540 60 0 0.0 0.0 0.00 0.00 0.00 50 1016.9
20260509194040 60 0 0.0 2.0 0.00 0.00 0.00 50 1017.0
20260509193540 60 0 0.0 2.0 0.00 0.00 0.00 50 1017.0
20260509193040 60 15 0.0 2.0 0.00 0.00 0.00 49 1017.1
20260509192541 60 32 0.0 1.0 0.00 0.00 0.00 48 1017.0
20260509192040 60 0 0.0 0.0 0.00 0.00 0.00 47 1017.0
20260509191540 60 0 0.0 0.0 0.00 0.00 0.00 50 1017.0
20260509191040 60 32 0.0 0.0 0.00 0.00 0.00 51 1017.1
20260509190539 59 0 0.0 0.0 0.00 0.00 0.00 51 1017.0
20260509190040 59 0 0.0 0.0 0.00 0.00 0.00 52 1017.1
20260509185540 59 9 0.0 0.0 0.00 0.00 0.00 52 1017.1
20260509185040 59 0 0.0 0.0 0.00 0.00 0.00 52 1017.1
20260509184539 59 0 0.0 0.0 0.00 0.00 0.00 52 1017.1
20260509184040 59 0 0.0 0.0 0.00 0.00 0.00 53 1017.1
20260509183539 58 9 0.0 0.0 0.00 0.00 0.00 54 1017.1
20260509183039 58 9 0.0 2.0 0.00 0.00 0.00 52 1017.2
20260509182541 58 0 0.0 2.0 0.00 0.00 0.00 55 1017.2
20260509182039 58 63 0.0 2.0 0.00 0.00 0.00 55 1017.0
20260509181539 58 0 0.0 0.0 0.00 0.00 0.00 55 1017.0
20260509181041 57 0 0.0 0.0 0.00 0.00 0.00 56 1017.1
20260509180540 57 0 0.0 0.0 0.00 0.00 0.00 56 1017.0
20260509180039 57 0 0.0 1.0 0.00 0.00 0.00 55 1017.1
20260509175539 57 238 0.0 1.0 0.00 0.00 0.00 56 1017.0
20260509175040 57 277 0.0 1.0 0.00 0.00 0.00 56 1017.0
20260509174544 57 148 0.0 1.0 0.00 0.00 0.00 56 1017.0
20260509174039 57 96 0.0 1.0 0.00 0.00 0.00 57 1017.0
20260509173539 56 0 0.0 1.0 0.00 0.00 0.00 58 1017.1
20260509173039 56 357 0.0 1.0 0.00 0.00 0.00 55 1017.0
20260509172542 56 14 0.0 0.0 0.00 0.00 0.00 57 1017.0
20260509172039 56 0 0.0 0.0 0.00 0.00 0.00 56 1017.0
20260509171539 56 243 0.0 2.0 0.00 0.00 0.00 56 1017.0
20260509171039 56 0 0.0 2.0 0.00 0.00 0.00 55 1017.0
20260509170539 55 243 0.0 2.0 0.00 0.00 0.00 57 1017.0
20260509170041 55 0 0.0 0.0 0.00 0.00 0.00 57 1017.0
20260509165539 55 0 0.0 0.0 0.00 0.00 0.00 55 1017.1
20260509165039 55 65 0.0 0.0 0.00 0.00 0.00 57 1016.9
20260509164539 55 84 0.0 4.0 0.00 0.00 0.00 58 1016.9
20260509164039 55 109 0.0 4.0 0.00 0.00 0.00 60 1016.7
20260509163539 54 110 0.0 4.0 0.00 0.00 0.00 60 1016.7
20260509163039 54 114 0.0 2.0 0.00 0.00 0.00 59 1016.9
20260509162539 54 169 0.0 2.0 0.00 0.00 0.00 61 1016.9
20260509162039 54 93 0.0 2.0 0.00 0.00 0.00 62 1016.7
20260509161539 53 106 0.0 2.0 0.00 0.00 0.00 62 1016.7
20260509161039 53 119 0.0 2.0 0.00 0.00 0.00 63 1016.7
20260509160539 53 109 0.0 3.0 0.00 0.00 0.00 64 1016.7
20260509160039 53 70 1.0 3.0 0.00 0.00 0.00 65 1016.9
20260509155539 52 126 0.0 3.0 0.00 0.00 0.00 65 1016.9
20260509155039 52 109 0.0 2.0 0.00 0.00 0.00 65 1017.0
20260509154539 52 86 0.0 2.0 0.00 0.00 0.00 66 1017.0
20260509154039 52 99 0.0 2.0 0.00 0.00 0.00 66 1017.0
20260509153539 52 239 0.0 0.0 0.00 0.00 0.00 66 1017.0
20260509153039 52 239 0.0 0.0 0.00 0.00 0.00 67 1017.1
20260509152540 51 239 0.0 3.0 0.00 0.00 0.00 67 1017.1
20260509152040 51 239 0.0 3.0 0.00 0.00 0.00 67 1017.1
20260509151540 51 72 0.0 3.0 0.00 0.00 0.00 67 1017.0
20260509151039 51 72 0.0 0.0 0.00 0.00 0.00 68 1017.0
20260509150539 50 0 0.0 0.0 0.00 0.00 0.00 68 1017.0
20260509150039 50 0 0.0 0.0 0.00 0.00 0.00 69 1017.1
20260509145539 50 0 0.0 0.0 0.00 0.00 0.00 70 1017.1
20260509145039 50 0 0.0 0.0 0.00 0.00 0.00 70 1017.2
20260509144539 50 0 0.0 0.0 0.00 0.00 0.00 70 1017.2
20260509144039 50 0 0.0 0.0 0.00 0.00 0.00 70 1017.2
20260509143539 50 0 0.0 0.0 0.00 0.00 0.00 69 1017.3
20260509143041 49 0 0.0 0.0 0.00 0.00 0.00 70 1017.3
20260509142541 49 0 0.0 0.0 0.00 0.00 0.00 70 1017.3
20260509142041 49 0 0.0 0.0 0.00 0.00 0.00 71 1017.3
20260509141539 49 0 0.0 0.0 0.00 0.00 0.00 70 1017.4
20260509141040 49 0 0.0 0.0 0.00 0.00 0.00 71 1017.3
20260509140539 49 0 0.0 0.0 0.00 0.00 0.00 71 1017.2
20260509140042 48 0 0.0 0.0 0.00 0.00 0.00 71 1017.1
20260509135539 48 0 0.0 0.0 0.00 0.00 0.00 72 1017.0
20260509135039 48 0 0.0 0.0 0.00 0.00 0.00 73 1016.9
20260509134539 48 0 0.0 0.0 0.00 0.00 0.00 72 1016.9
20260509134039 48 0 0.0 0.0 0.00 0.00 0.00 73 1017.0
20260509133539 48 0 0.0 0.0 0.00 0.00 0.00 73 1017.1
20260509133039 47 0 0.0 0.0 0.00 0.00 0.00 73 1017.0
20260509132540 47 0 0.0 0.0 0.00 0.00 0.00 73 1017.0
20260509132039 47 0 0.0 0.0 0.00 0.00 0.00 73 1017.0
20260509131539 47 0 0.0 0.0 0.00 0.00 0.00 73 1017.0
20260509131039 46 0 0.0 0.0 0.00 0.00 0.00 75 1017.0
20260509130541 46 0 0.0 0.0 0.00 0.00 0.00 75 1017.1
20260509130039 46 0 0.0 0.0 0.00 0.00 0.00 75 1017.2
20260509125540 46 0 0.0 0.0 0.00 0.00 0.00 75 1017.1
20260509125039 46 0 0.0 0.0 0.00 0.00 0.00 75 1017.2
20260509124539 46 0 0.0 0.0 0.00 0.00 0.00 75 1017.2
20260509124039 46 0 0.0 0.0 0.00 0.00 0.00 75 1017.2
20260509123539 46 0 0.0 0.0 0.00 0.00 0.00 75 1017.3
20260509123039 46 0 0.0 0.0 0.00 0.00 0.00 76 1017.3
20260509122539 46 0 0.0 0.0 0.00 0.00 0.00 76 1017.4
20260509122039 46 0 0.0 0.0 0.00 0.00 0.00 76 1017.4
20260509121539 46 0 0.0 0.0 0.00 0.00 0.00 76 1017.5
20260509121041 46 0 0.0 0.0 0.00 0.00 0.00 76 1017.4
20260509120539 46 0 0.0 0.0 0.00 0.00 0.00 76 1017.5
20260509120039 46 0 0.0 0.0 0.00 0.00 0.00 77 1017.5
20260509115541 46 0 0.0 0.0 0.00 0.00 0.00 77 1017.6
20260509115039 46 0 0.0 0.0 0.00 0.00 0.00 77 1017.7
20260509114539 45 0 0.0 0.0 0.00 0.00 0.00 77 1017.9
20260509114039 45 0 0.0 0.0 0.00 0.00 0.00 77 1017.7
20260509113539 45 0 0.0 0.0 0.00 0.00 0.00 77 1017.7
20260509113039 45 0 0.0 0.0 0.00 0.00 0.00 77 1017.7
20260509112539 45 0 0.0 0.0 0.00 0.00 0.00 77 1017.7
20260509112039 45 0 0.0 0.0 0.00 0.00 0.00 77 1017.7
20260509111540 45 0 0.0 0.0 0.00 0.00 0.00 77 1017.7
20260509111039 45 0 0.0 0.0 0.00 0.00 0.00 77 1017.7
20260509110539 45 0 0.0 0.0 0.00 0.00 0.00 77 1017.7
20260509110039 45 0 0.0 0.0 0.00 0.00 0.00 77 1017.6
20260509105539 45 0 0.0 0.0 0.00 0.00 0.00 77 1017.7
20260509105042 45 0 0.0 0.0 0.00 0.00 0.00 76 1017.6
20260509104539 45 0 0.0 0.0 0.00 0.00 0.00 77 1017.7
20260509104040 45 0 0.0 0.0 0.00 0.00 0.00 77 1017.9
20260509103539 45 0 0.0 0.0 0.00 0.00 0.00 77 1017.9
20260509103039 45 0 0.0 0.0 0.00 0.00 0.00 76 1018.0
20260509102539 45 0 0.0 0.0 0.00 0.00 0.00 77 1018.0
20260509102039 45 0 0.0 0.0 0.00 0.00 0.00 77 1018.1
20260509101539 45 0 0.0 0.0 0.00 0.00 0.00 76 1018.1
20260509101039 46 0 0.0 0.0 0.00 0.00 0.00 76 1018.2
20260509100538 46 0 0.0 0.0 0.00 0.00 0.00 76 1018.1
20260509100039 46 0 0.0 0.0 0.00 0.00 0.00 76 1018.2
20260509095539 46 0 0.0 0.0 0.00 0.00 0.00 76 1018.1
20260509095039 46 0 0.0 0.0 0.00 0.00 0.00 76 1018.2
20260509094038 46 0 0.0 0.0 0.00 0.00 0.00 76 1018.2
20260509093538 46 72 0.0 0.0 0.00 0.00 0.00 76 1018.1
20260509093039 46 0 0.0 0.0 0.00 0.00 0.00 76 1018.2
20260509092539 45 0 0.0 0.0 0.00 0.00 0.00 76 1018.1
20260509092038 46 0 0.0 0.0 0.00 0.00 0.00 76 1018.1
20260509091538 46 0 0.0 3.0 0.00 0.00 0.00 76 1018.2
20260509091038 46 0 0.0 3.0 0.00 0.00 0.00 76 1018.2
20260509090538 46 107 0.0 3.0 0.00 0.00 0.00 76 1018.2
20260509090038 46 0 0.0 1.0 0.00 0.00 0.00 76 1018.3
20260509085538 46 91 0.0 1.0 0.00 0.00 0.00 76 1018.3
20260509085038 46 0 0.0 0.0 0.00 0.00 0.00 76 1018.3
20260509084538 46 0 0.0 1.0 0.00 0.00 0.00 75 1018.4
20260509084038 46 91 0.0 1.0 0.00 0.00 0.00 75 1018.4
20260509083538 46 343 0.0 1.0 0.00 0.00 0.00 75 1018.4
20260509083038 46 0 0.0 0.0 0.00 0.00 0.00 75 1018.4
20260509082540 46 0 0.0 0.0 0.00 0.00 0.00 75 1018.4
20260509082038 46 0 0.0 0.0 0.00 0.00 0.00 75 1018.4
20260509081539 46 343 0.0 0.0 0.00 0.00 0.00 74 1018.4
20260509081038 46 0 0.0 0.0 0.00 0.00 0.00 74 1018.3
20260509080538 46 0 0.0 0.0 0.00 0.00 0.00 74 1018.4
20260509080038 46 0 0.0 1.0 0.00 0.00 0.00 74 1018.4
20260509075538 46 0 0.0 1.0 0.00 0.00 0.00 74 1018.4
20260509075038 46 343 0.0 1.0 0.00 0.00 0.00 73 1018.4
20260509074538 46 0 0.0 0.0 0.00 0.00 0.00 73 1018.5
20260509074038 46 0 0.0 0.0 0.00 0.00 0.00 72 1018.5
20260509073540 46 0 0.0 0.0 0.00 0.00 0.00 72 1018.5
20260509073038 47 0 0.0 0.0 0.00 0.00 0.00 72 1018.5
20260509072540 46 0 0.0 0.0 0.00 0.00 0.00 72 1018.5
20260509072038 47 0 0.0 0.0 0.00 0.00 0.00 72 1018.6
20260509071538 47 0 0.0 0.0 0.00 0.00 0.00 72 1018.5
20260509071040 47 0 0.0 0.0 0.00 0.00 0.00 72 1018.5
20260509070538 47 0 0.0 0.0 0.00 0.00 0.00 72 1018.6
20260509070038 47 0 0.0 0.0 0.00 0.00 0.00 71 1018.7
20260509065538 47 0 0.0 0.0 0.00 0.00 0.00 72 1018.7
20260509065038 47 0 0.0 0.0 0.00 0.00 0.00 72 1018.7
20260509064538 47 0 0.0 0.0 0.00 0.00 0.00 71 1018.9
20260509064038 47 0 0.0 0.0 0.00 0.00 0.00 71 1018.9
20260509063538 47 0 0.0 0.0 0.00 0.00 0.00 71 1018.9
20260509063039 47 0 0.0 0.0 0.00 0.00 0.00 71 1019.0
20260509062540 47 0 0.0 0.0 0.00 0.00 0.00 72 1019.0
20260509062038 47 0 0.0 0.0 0.00 0.00 0.00 72 1019.0
20260509061538 47 0 0.0 0.0 0.00 0.00 0.00 71 1019.0
20260509061038 47 0 0.0 0.0 0.00 0.00 0.00 72 1019.0
20260509060538 47 0 0.0 0.0 0.00 0.00 0.00 72 1019.0
20260509060038 47 0 0.0 0.0 0.00 0.00 0.00 72 1019.0
20260509055538 47 0 0.0 0.0 0.00 0.00 0.00 73 1019.0
20260509055038 47 0 0.0 0.0 0.00 0.00 0.00 72 1019.0
20260509054538 47 0 0.0 0.0 0.00 0.00 0.00 72 1019.0
20260509054038 47 0 0.0 0.0 0.00 0.00 0.00 73 1019.0
20260509053538 47 0 0.0 0.0 0.00 0.00 0.00 73 1019.1
20260509053038 47 0 0.0 0.0 0.00 0.00 0.00 73 1019.1
20260509052540 47 0 0.0 0.0 0.00 0.00 0.00 73 1019.1
20260509052039 47 0 0.0 0.0 0.00 0.00 0.00 73 1019.1
20260509051538 47 0 0.0 0.0 0.00 0.00 0.00 73 1019.1
20260509051038 47 0 0.0 0.0 0.00 0.00 0.00 73 1019.1
20260509050538 47 0 0.0 0.0 0.00 0.00 0.00 73 1019.0
20260509050038 46 0 0.0 0.0 0.00 0.00 0.00 73 1019.0
20260509045538 46 0 0.0 0.0 0.00 0.00 0.00 73 1018.9
20260509045038 46 0 0.0 0.0 0.00 0.00 0.00 73 1018.9
20260509044538 46 0 0.0 0.0 0.00 0.00 0.00 73 1018.9
20260509044038 47 0 0.0 0.0 0.00 0.00 0.00 73 1018.9
20260509043538 47 0 0.0 0.0 0.00 0.00 0.00 73 1018.9
20260509043038 47 0 0.0 0.0 0.00 0.00 0.00 73 1018.9
20260509042039 47 343 0.0 0.0 0.00 0.00 0.00 73 1018.7
20260509041538 47 0 0.0 0.0 0.00 0.00 0.00 73 1018.7
20260509041039 47 0 0.0 0.0 0.00 0.00 0.00 73 1018.7
20260509040538 47 0 0.0 0.0 0.00 0.00 0.00 72 1018.6
20260509040038 48 0 0.0 0.0 0.00 0.00 0.00 71 1018.6
20260509035540 48 0 0.0 0.0 0.00 0.00 0.00 70 1018.6
20260509035038 48 0 0.0 0.0 0.00 0.00 0.00 70 1018.6
20260509034542 48 0 0.0 0.0 0.00 0.00 0.00 69 1018.6
20260509034039 49 0 0.0 0.0 0.00 0.00 0.00 69 1018.6
20260509033538 49 317 0.0 1.0 0.00 0.00 0.00 69 1018.5
20260509033038 49 333 0.0 1.0 0.00 0.00 0.00 68 1018.5
20260509032538 49 280 0.0 1.0 0.00 0.00 0.00 68 1018.9
20260509032038 49 0 0.0 0.0 0.00 0.00 0.00 67 1018.5
20260509031538 50 336 0.0 0.0 0.00 0.00 0.00 68 1018.5
20260509031038 50 338 0.0 0.0 0.00 0.00 0.00 67 1018.7
20260509030538 50 323 0.0 0.0 0.00 0.00 0.00 67 1018.6
20260509030038 51 0 0.0 0.0 0.00 0.00 0.00 67 1018.5
20260509025538 51 0 0.0 0.0 0.00 0.00 0.00 66 1018.6
20260509025038 51 347 0.0 1.0 0.00 0.00 0.00 66 1018.7
20260509024538 51 0 0.0 1.0 0.00 0.00 0.00 66 1018.6
20260509024038 51 347 0.0 1.0 0.00 0.00 0.00 65 1018.9
20260509023538 51 302 0.0 1.0 0.00 0.00 0.00 65 1018.6
20260509023038 51 0 0.0 2.0 0.00 0.00 0.00 65 1018.9
20260509022538 52 302 0.0 2.0 0.00 0.00 0.00 65 1018.7
20260509022038 52 278 0.0 2.0 0.00 0.00 0.00 65 1018.6
20260509021538 52 0 0.0 0.0 0.00 0.00 0.00 65 1018.7
20260509021038 52 0 0.0 0.0 0.00 0.00 0.00 64 1018.6
20260509020538 52 0 0.0 0.0 0.00 0.00 0.00 63 1018.7
20260509020038 52 0 0.0 0.0 0.00 0.00 0.00 63 1018.6
20260509015538 52 0 0.0 0.0 0.00 0.00 0.00 63 1018.9
20260509015038 52 0 0.0 0.0 0.00 0.00 0.00 63 1018.9
20260509014538 52 0 0.0 0.0 0.00 0.00 0.00 63 1018.7
20260509014037 52 0 0.0 0.0 0.00 0.00 0.00 63 1018.6
20260509013538 52 0 0.0 0.0 0.00 0.00 0.00 63 1018.6
20260509013038 52 0 0.0 0.0 0.00 0.00 0.00 63 1018.6
20260509012538 52 0 0.0 0.0 0.00 0.00 0.00 62 1018.9
20260509012038 53 0 0.0 0.0 0.00 0.00 0.00 62 1018.7
20260509011538 53 0 0.0 0.0 0.00 0.00 0.00 62 1018.9
20260509011038 53 0 0.0 0.0 0.00 0.00 0.00 61 1018.9
20260509010538 53 0 0.0 0.0 0.00 0.00 0.00 61 1018.7
20260509010038 53 0 0.0 0.0 0.00 0.00 0.00 61 1019.0
20260509005538 53 0 0.0 0.0 0.00 0.00 0.00 61 1018.9
20260509005038 53 0 0.0 0.0 0.00 0.00 0.00 61 1019.2
20260509004538 53 0 0.0 0.0 0.00 0.00 0.00 54 1019.1
20260509004038 53 0 0.0 0.0 0.00 0.00 0.00 61 1019.2
20260509003537 53 0 0.0 0.0 0.00 0.00 0.00 61 1019.0
20260509003038 53 0 0.0 0.0 0.00 0.00 0.00 59 1018.9
20260509002538 53 0 0.0 0.0 0.00 0.00 0.00 60 1019.3
20260509002038 53 0 0.0 0.0 0.00 0.00 0.00 60 1019.0
20260509001537 53 0 0.0 0.0 0.00 0.00 0.00 60 1019.3
20260509001037 53 0 0.0 0.0 0.00 0.00 0.00 60 1019.0
20260509000537 53 0 0.0 0.0 0.00 0.00 0.00 60 1019.0
20260509000037 53 323 0.0 2.0 0.00 0.00 0.00 60 1019.2
20260508235537 53 0 0.0 2.0 0.00 0.00 0.00 59 1019.0
20260508235038 53 42 0.0 2.0 0.00 0.00 0.00 59 1019.0
20260508234537 53 0 0.0 0.0 0.00 0.00 0.00 59 1019.0
20260508234037 53 0 0.0 0.0 0.00 0.00 0.00 58 1019.2
20260508233537 53 0 0.0 0.0 0.00 0.00 0.00 59 1019.0
20260508233038 53 0 0.0 0.0 0.00 0.00 0.00 58 1019.1
20260508232538 53 0 0.0 0.0 0.00 0.00 0.00 58 1019.3
20260508232038 53 0 0.0 0.0 0.00 0.00 0.00 58 1019.1
20260508231537 54 0 0.0 0.0 0.00 0.00 0.00 57 1019.1
20260508231037 53 0 0.0 0.0 0.00 0.00 0.00 58 1019.1
20260508230537 54 256 0.0 0.0 0.00 0.00 0.00 57 1019.2
20260508230037 54 0 0.0 2.0 0.00 0.00 0.00 55 1019.0
20260508225537 54 0 0.0 2.0 0.00 0.00 0.00 55 1019.2
20260508225037 55 308 0.0 2.0 0.00 0.00 0.00 55 1019.1
20260508224537 55 0 0.0 0.0 0.00 0.00 0.00 55 1019.1
20260508224037 55 0 0.0 0.0 0.00 0.00 0.00 54 1018.9
20260508223537 55 0 0.0 1.0 0.00 0.00 0.00 54 1019.0
20260508223037 55 343 0.0 1.0 0.00 0.00 0.00 54 1018.9
20260508222537 55 334 0.0 1.0 0.00 0.00 0.00 55 1019.0
20260508222037 55 0 0.0 0.0 0.00 0.00 0.00 55 1018.9
20260508221537 55 0 0.0 0.0 0.00 0.00 0.00 54 1018.9
20260508221037 55 0 0.0 0.0 0.00 0.00 0.00 53 1018.7
20260508220537 55 0 0.0 1.0 0.00 0.00 0.00 54 1018.9
20260508220037 55 0 0.0 1.0 0.00 0.00 0.00 48 1019.0
20260508215537 55 308 0.0 1.0 0.00 0.00 0.00 53 1019.0
20260508215037 55 0 0.0 4.0 0.00 0.00 0.00 54 1019.1
20260508214537 55 266 0.0 4.0 0.00 0.00 0.00 54 1018.7
20260508214037 55 253 0.0 4.0 0.00 0.00 0.00 54 1018.7
20260508213537 54 273 0.0 4.0 0.00 0.00 0.00 55 1018.9
20260508213037 54 287 0.0 4.0 0.00 0.00 0.00 55 1018.7
20260508212537 54 282 0.0 4.0 0.00 0.00 0.00 54 1018.9
20260508212037 54 221 0.0 3.0 0.00 0.00 0.00 56 1018.6
20260508211537 54 263 0.0 3.0 0.00 0.00 0.00 57 1018.6
20260508211037 54 0 0.0 2.0 0.00 0.00 0.00 58 1018.6
20260508210537 53 291 0.0 2.0 0.00 0.00 0.00 59 1018.5
20260508210037 53 282 0.0 3.0 0.00 0.00 0.00 59 1018.5
20260508205537 53 268 0.0 3.0 0.00 0.00 0.00 59 1018.6
20260508205037 53 266 0.0 3.0 0.00 0.00 0.00 58 1018.6
20260508204537 53 0 0.0 1.0 0.00 0.00 0.00 59 1018.4
20260508204037 53 267 0.0 1.0 0.00 0.00 0.00 60 1018.6